Temp
12 12 12 13 13 13 13 12 12 12 12 11 10 10 10 10 9 7 9 15 13 12 12 12 13 11 10 11 11 12 8 11 12 11 13 15 14 17 18 18 19 19 19 20 19
12 12 12 11 11 11 11 11 11 11 11 10 9 8 8 8 7 8 13 13 14 11 10 9 11 11 9 10 11 9 9 11 13 13 12 14 14 16 16 17 17 17 18 17 17
11 11 11 11 11 11 10 10 10 11 11 10 9 8 7 6 6 13 12 13 13 12 9 10 11 11 9 9 10 10 11 13 12 14 14 13 14 16 15 15 17 16 15 14 13
10 10 11 11 11 11 10 10 9 10 10 10 8 6 5 5 7 14 13 14 11 11 10 9 9 9 7 8 10 8 12 12 13 14 13 12 14 14 15 15 13 14 13 12 12
10 10 11 10 10 10 10 10 9 9 10 9 8 5 5 6 7 13 11 11 10 9 11 9 9 9 8 8 10 9 11 12 12 12 13 13 11 13 13 11 11 11 11 9 8
10 10 10 10 9 9 8 9 9 9 9 10 7 6 5 6 10 10 9 9 9 9 9 10 9 10 9 9 9 10 11 11 12 11 12 11 11 12 6 7 8 10 7 6 6
10 10 10 9 9 8 8 8 9 9 9 10 7 6 5 6 9 8 8 8 9 9 8 9 9 9 9 10 11 10 9 11 11 11 11 12 11 11 5 5 2 2 2 3 3
9 9 9 8 8 8 8 8 9 9 9 10 7 6 6 7 8 8 8 8 9 9 9 9 9 8 8 9 9 9 8 8 11 11 11 12 11 2 2 2 -2 -2 -1 -0 -0
8 8 8 8 9 9 8 9 9 8 8 8 7 6 5 7 8 7 7 9 9 8 8 8 9 8 9 7 7 8 7 8 9 11 11 11 9 -0 -1 -2 -3 -4 -4 -3 -2
8 8 8 9 9 8 7 7 8 6 7 8 6 5 7 7 6 7 7 8 8 8 8 8 8 6 6 7 5 7 6 8 9 10 11 10 3 -2 -3 -4 -5 -6 -6 -6 -5
8 9 8 8 8 7 7 6 5 5 5 4 5 5 5 6 6 8 7 7 7 7 6 7 4 3 6 6 7 8 8 7 8 10 10 9 -1 -3 -4 -5 -6 -7 -7 -8 -8
9 8 8 9 8 7 5 4 4 3 3 4 5 4 5 5 4 8 7 6 6 4 6 5 4 6 7 6 6 7 6 6 7 9 8 -0 -3 -4 -5 -6 -7 -8 -9 -9 -9
8 8 7 9 7 4 4 4 4 3 3 4 6 5 6 6 5 6 7 6 5 4 4 4 5 7 6 6 6 6 6 5 6 7 2 -2 -4 -5 -7 -7 -8 -9 -10 -10 -10
7 7 6 7 5 4 3 2 3 3 2 4 6 6 6 6 5 7 7 6 6 4 4 5 6 5 5 5 6 4 5 6 7 6 4 3 4 -4 -6 -8 -8 -10 -10 -11 -11
7 7 6 4 4 3 2 3 2 3 -0 6 5 5 4 5 6 5 5 5 4 4 3 4 4 4 4 5 6 5 6 5 4 4 4 4 5 -5 -6 -7 -9 -10 -11 -12 -12
6 6 5 3 2 2 3 3 3 1 -2 4 4 3 3 4 4 3 3 2 3 3 2 3 5 4 3 5 6 7 4 4 4 5 6 6 5 -4 -5 -7 -10 -11 -12 -12 -13
5 3 3 2 2 3 3 3 -0 -2 4 2 1 2 2 1 1 0 -0 -5 -5 -4 -3 -1 2 4 3 3 4 4 4 5 5 4 6 5 5 -8 -8 -9 -10 -11 -12 -13 -14
5 3 2 2 2 3 3 -1 -3 3 1 1 1 1 1 -1 -1 -1 -2 -4 -6 -6 -5 -4 -2 2 1 1 1 1 3 3 5 2 3 2 -5 -9 -10 -11 -12 -12 -13 -14 -14
4 3 3 3 3 3 2 -4 1 -1 -1 -1 -1 -2 -1 -1 -3 -3 -6 -6 -6 -7 -10 -9 -4 -0 -0 1 2 1 2 4 4 2 2 -7 -11 -10 -10 -11 -12 -13 -14 -15 -15
4 2 3 3 3 3 -1 0 -2 -3 -3 -1 -7 -3 -4 -4 -7 -9 -7 -6 -6 -6 -7 -9 -6 -2 -0 -0 1 1 1 2 4 5 5 -4 -9 -8 -11 -12 -12 -13 -14 -16 -16
3 2 3 3 3 2 -5 -4 -2 -4 -4 -4 -5 -6 -6 -7 -9 -9 -6 -6 -6 -7 -7 -8 -9 -6 -4 -11 -10 -10 -11 -10 -10 1 -1 -5 -9 -12 -11 -12 -13 -14 -15 -16 -16
2 -0 2 3 -3 -6 -8 -4 -4 -5 -6 -4 -4 -5 -7 -6 -13 -9 -6 -7 -7 -7 -11 -9 -9 -11 -9 -11 -11 -12 -13 -12 -10 -4 -4 -6 -15 -11 -12 -13 -14 -15 -16 -16 -16
1 0 1 3 -9 -9 -7 -4 -5 -6 -6 -6 -6 -7 -8 -10 -11 -8 -7 -6 -8 -8 -9 -9 -14 -14 -12 -10 -12 -14 -13 -14 -12 -11 -11 -6 -16 -12 -12 -13 -14 -15 -15 -16 -16
1 -6 -3 -4 -7 -12 -11 -10 -8 -7 -7 -9 -8 -9 -12 -15 -9 -13 -11 -7 -9 -10 -8 -10 -17 -15 -14 -15 -14 -15 -15 -14 -13 -9 -12 -13 -14 -13 -13 -14 -14 -15 -15 -16 -16
-0 -7 -7 -12 -9 -14 -13 -15 -14 -11 -10 -11 -13 -13 -13 -16 -15 -14 -11 -11 -11 -10 -13 -15 -14 -15 -13 -13 -12 -14 -14 -15 -15 -14 -12 -14 -14 -14 -14 -14 -15 -15 -15 -16 -17
-1 -3 -6 -9 -9 -15 -16 -19 -16 -13 -13 -12 -14 -12 -16 -15 -12 -13 -13 -18 -19 -15 -18 -15 -14 -14 -14 -12 -12 -14 -14 -14 -15 -16 -14 -14 -15 -15 -14 -15 -15 -15 -15 -16 -16
-2 -3 -2 -12 -15 -16 -17 -15 -12 -15 -13 -12 -16 -18 -19 -17 -11 -13 -13 -12 -16 -16 -21 -18 -15 -12 -10 -12 -13 -14 -15 -15 -15 -16 -16 -16 -16 -16 -16 -16 -16 -16 -16 -16 -16
Height
1531 1527 1523 1519 1514 1510 1505 1501 1497 1493 1488 1484 1480 1475 1471 1466 1460 1456 1446 1442 1443 1444 1450 1449 1452 1458 1460 1457 1460 1462 1462 1445 1443 1445 1439 1435 1438 1437 1437 1437 1436 1433 1432 1431 1431
1529 1524 1519 1514 1509 1503 1498 1494 1490 1486 1483 1478 1474 1471 1467 1462 1454 1443 1432 1433 1433 1433 1438 1442 1445 1444 1452 1455 1452 1447 1444 1433 1429 1433 1432 1431 1433 1433 1434 1433 1432 1430 1428 1430 1431
1524 1519 1514 1509 1503 1498 1493 1488 1484 1480 1475 1472 1467 1463 1461 1458 1446 1433 1431 1430 1431 1425 1430 1434 1440 1439 1437 1436 1436 1434 1414 1416 1419 1423 1427 1429 1430 1429 1429 1431 1427 1427 1427 1430 1430
1520 1515 1509 1504 1499 1494 1489 1483 1479 1474 1469 1465 1461 1459 1457 1455 1452 1428 1429 1426 1428 1433 1430 1430 1433 1435 1432 1426 1425 1424 1409 1418 1415 1418 1419 1423 1425 1426 1427 1425 1423 1424 1423 1425 1428
1516 1511 1505 1499 1493 1488 1484 1478 1473 1468 1464 1459 1455 1453 1453 1452 1430 1426 1426 1423 1423 1425 1424 1427 1429 1427 1424 1419 1420 1414 1404 1406 1410 1412 1414 1416 1418 1423 1425 1421 1421 1419 1422 1424 1426
1512 1506 1500 1494 1488 1482 1477 1471 1466 1461 1457 1452 1448 1448 1447 1437 1424 1424 1422 1421 1421 1423 1425 1425 1424 1425 1417 1415 1415 1405 1408 1406 1406 1407 1410 1412 1412 1420 1423 1420 1418 1417 1418 1423 1425
1506 1500 1494 1488 1481 1475 1469 1464 1459 1455 1450 1445 1442 1441 1437 1422 1422 1421 1421 1419 1419 1420 1420 1421 1421 1423 1417 1414 1411 1407 1406 1402 1397 1402 1401 1409 1408 1407 1416 1418 1418 1416 1417 1419 1424
1500 1494 1488 1482 1476 1469 1463 1457 1451 1447 1442 1437 1435 1437 1429 1421 1421 1420 1417 1415 1415 1412 1415 1417 1418 1416 1414 1412 1408 1409 1405 1400 1385 1395 1395 1405 1395 1417 1417 1416 1420 1418 1417 1419 1421
1496 1489 1483 1476 1470 1463 1456 1449 1445 1440 1436 1432 1432 1433 1425 1422 1420 1417 1418 1413 1410 1410 1411 1412 1413 1411 1412 1411 1413 1401 1400 1397 1392 1389 1390 1392 1394 1421 1421 1420 1421 1423 1419 1419 1421
1491 1484 1477 1471 1465 1458 1451 1446 1440 1436 1435 1432 1429 1434 1423 1419 1418 1414 1413 1415 1411 1409 1410 1409 1407 1406 1409 1410 1405 1397 1402 1392 1385 1390 1389 1387 1407 1426 1428 1426 1427 1427 1424 1421 1422
1485 1478 1471 1465 1460 1454 1448 1441 1441 1439 1438 1434 1431 1430 1421 1420 1415 1413 1409 1409 1410 1410 1410 1407 1410 1406 1399 1396 1393 1392 1389 1388 1383 1386 1383 1386 1418 1427 1433 1433 1433 1433 1432 1428 1427
1479 1472 1464 1459 1455 1450 1449 1447 1450 1452 1434 1427 1423 1422 1420 1417 1416 1409 1408 1408 1407 1407 1404 1408 1399 1390 1391 1394 1393 1391 1391 1389 1374 1382 1386 1412 1423 1430 1434 1439 1439 1439 1438 1435 1432
1474 1468 1460 1455 1450 1451 1450 1450 1447 1445 1441 1425 1423 1421 1422 1420 1415 1410 1409 1407 1405 1403 1401 1401 1387 1384 1389 1388 1389 1387 1385 1380 1385 1377 1397 1412 1427 1430 1436 1438 1439 1441 1441 1439 1436
1470 1464 1457 1453 1453 1449 1451 1449 1448 1445 1444 1430 1424 1425 1424 1420 1417 1413 1409 1410 1404 1402 1398 1391 1381 1383 1381 1382 1384 1382 1371 1374 1373 1378 1381 1388 1381 1421 1430 1436 1438 1441 1441 1440 1440
1465 1460 1454 1447 1449 1449 1448 1447 1446 1446 1469 1426 1426 1426 1424 1422 1418 1413 1414 1410 1407 1402 1403 1385 1381 1382 1377 1372 1374 1366 1368 1368 1372 1371 1373 1374 1364 1419 1426 1434 1439 1439 1439 1441 1440
1464 1458 1455 1453 1450 1450 1447 1444 1443 1453 1469 1429 1429 1430 1424 1423 1421 1418 1418 1414 1408 1397 1393 1387 1379 1379 1375 1366 1367 1362 1365 1357 1360 1359 1344 1347 1358 1411 1419 1424 1438 1443 1441 1441 1439
1463 1459 1456 1454 1453 1448 1448 1446 1457 1466 1436 1439 1438 1436 1431 1430 1427 1427 1425 1435 1440 1428 1415 1397 1380 1371 1376 1370 1369 1367 1360 1351 1347 1351 1337 1339 1348 1423 1428 1431 1436 1442 1445 1444 1442
1461 1459 1457 1455 1452 1448 1446 1449 1472 1447 1450 1446 1442 1437 1430 1438 1436 1432 1433 1441 1444 1443 1433 1422 1396 1380 1380 1389 1386 1371 1369 1363 1333 1354 1347 1353 1403 1431 1436 1439 1442 1444 1446 1445 1443
1460 1459 1457 1454 1453 1451 1449 1468 1456 1465 1464 1457 1448 1444 1442 1442 1447 1440 1448 1451 1449 1451 1463 1446 1409 1391 1391 1379 1376 1367 1360 1345 1339 1344 1348 1411 1439 1440 1439 1442 1448 1446 1446 1449 1447
1460 1457 1456 1453 1451 1451 1453 1460 1467 1472 1469 1464 1476 1458 1459 1453 1457 1461 1453 1456 1452 1452 1451 1443 1418 1393 1382 1379 1368 1364 1357 1345 1319 1315 1321 1392 1423 1417 1438 1444 1449 1449 1453 1454 1452
1459 1457 1455 1452 1452 1453 1472 1475 1469 1472 1468 1466 1469 1471 1466 1465 1466 1465 1454 1455 1453 1450 1447 1442 1441 1407 1397 1427 1423 1406 1412 1405 1396 1321 1347 1394 1420 1429 1434 1441 1448 1456 1461 1457 1453
1460 1460 1457 1453 1457 1467 1480 1477 1476 1476 1474 1470 1470 1471 1471 1465 1479 1468 1458 1458 1459 1456 1453 1442 1437 1439 1425 1436 1431 1433 1443 1431 1411 1362 1354 1367 1456 1436 1441 1448 1453 1459 1460 1460 1462
1462 1462 1462 1457 1479 1481 1479 1479 1478 1478 1479 1476 1476 1477 1475 1475 1478 1466 1461 1460 1461 1457 1450 1444 1459 1458 1439 1432 1435 1441 1442 1438 1420 1407 1410 1382 1468 1447 1451 1454 1458 1460 1462 1465 1465
1465 1470 1468 1469 1479 1483 1488 1488 1482 1483 1483 1483 1481 1479 1482 1484 1472 1479 1471 1462 1463 1461 1453 1451 1470 1467 1471 1482 1473 1465 1452 1440 1419 1403 1428 1436 1452 1457 1459 1460 1463 1465 1467 1468 1469
1469 1479 1480 1491 1485 1490 1489 1496 1495 1490 1485 1484 1485 1486 1488 1494 1485 1483 1474 1469 1465 1463 1459 1461 1474 1472 1469 1466 1460 1464 1459 1452 1441 1437 1431 1455 1458 1464 1466 1465 1468 1470 1469 1470 1471
1473 1478 1483 1489 1489 1492 1495 1503 1501 1493 1492 1488 1490 1485 1487 1489 1485 1486 1484 1486 1486 1469 1470 1465 1468 1470 1471 1460 1456 1466 1468 1464 1462 1464 1460 1464 1470 1471 1469 1470 1471 1471 1471 1471 1473
1476 1479 1479 1496 1495 1498 1506 1500 1495 1495 1488 1487 1487 1489 1490 1484 1480 1478 1478 1477 1479 1481 1483 1477 1470 1463 1453 1455 1462 1471 1480 1479 1478 1477 1478 1479 1483 1479 1474 1474 1474 1473 1473 1472 1473
Wind_Speed
26 27 28 29 30 31 31 31 30 30 30 30 30 29 30 32 37 35 44 45 41 33 21 21 20 23 21 17 21 17 5 15 20 16 14 7 6 19 20 10 13 11 10 11 20
30 31 34 36 35 34 33 33 32 32 33 35 33 29 29 31 39 46 27 8 15 21 24 23 25 25 18 20 16 9 12 21 5 16 8 13 16 21 6 5 7 7 10 14 17
33 36 37 38 39 39 37 35 35 35 35 32 31 29 27 25 35 3 4 4 11 6 21 25 24 26 19 16 19 12 25 19 10 24 19 7 6 9 4 4 11 7 15 18 19
36 39 40 41 40 38 36 35 36 37 35 32 30 28 21 17 8 2 10 9 29 8 16 28 27 21 8 18 22 12 20 27 19 19 10 6 10 4 15 9 4 6 12 18 15
39 41 42 41 38 36 35 38 38 36 35 34 34 25 18 14 34 37 35 29 19 16 23 32 29 24 10 9 23 23 22 20 26 31 31 23 12 10 9 11 13 16 16 18 17
40 41 42 39 37 38 40 40 40 38 34 31 29 21 19 23 28 13 14 11 4 14 26 29 20 26 11 12 20 5 23 28 30 19 15 15 13 13 8 13 17 17 21 18 16
42 41 39 39 40 42 43 42 40 38 31 26 22 16 19 36 29 30 26 25 27 23 26 28 32 18 3 4 22 26 20 20 19 17 18 23 18 17 4 15 17 21 21 19 16
41 40 40 42 43 42 41 39 39 31 23 23 20 13 13 16 12 14 14 14 14 19 19 18 21 26 20 12 8 5 5 16 10 18 16 17 22 5 9 16 16 18 20 19 17
41 42 44 44 42 40 40 40 35 18 11 14 13 9 11 7 6 13 19 18 12 11 19 19 15 11 8 3 9 11 16 14 7 7 5 20 12 6 8 14 15 14 17 17 17
42 44 43 42 39 38 39 34 24 5 3 16 4 6 7 6 27 36 31 11 6 9 8 12 8 6 3 7 13 14 9 17 23 6 12 12 6 10 14 16 15 16 17 16 15
43 43 43 43 41 36 30 27 14 5 23 15 25 25 35 21 25 10 11 15 15 8 5 5 5 9 18 20 22 20 22 24 24 11 16 7 9 9 11 15 15 16 16 17 14
43 43 42 42 35 21 16 11 12 14 13 22 14 15 12 10 7 13 8 1 4 8 3 3 17 19 14 12 17 20 23 26 28 19 8 6 9 9 8 10 13 13 16 15 12
40 39 37 34 21 8 11 12 17 22 5 11 4 3 9 11 6 11 12 3 6 6 9 14 17 1 10 16 16 18 21 25 20 18 5 10 3 5 6 11 13 13 12 15 15
34 32 31 29 4 14 4 12 17 21 3 5 3 4 19 15 5 27 10 7 4 7 9 13 22 21 20 18 14 17 21 22 19 14 11 13 5 6 9 9 9 11 13 13 14
28 27 26 19 13 10 11 10 13 6 5 2 3 4 24 3 13 18 14 16 8 14 5 15 6 6 14 18 16 23 16 19 19 17 15 11 5 3 14 8 8 8 13 13 14
25 22 18 12 10 13 14 14 6 4 5 6 4 11 21 8 9 19 19 20 18 12 8 18 17 10 6 19 12 15 7 9 9 12 10 15 14 6 7 8 8 9 14 14 15
19 12 13 14 15 12 13 8 4 4 8 8 8 10 15 8 6 9 11 15 10 9 10 14 7 5 12 9 10 8 10 7 8 5 4 6 12 5 6 10 14 12 14 16 18
12 8 10 11 10 8 9 4 5 3 4 5 9 17 3 12 6 13 7 5 11 8 6 7 12 12 18 13 11 17 12 10 6 4 3 5 4 4 9 16 19 19 18 18 22
6 5 14 13 9 8 3 5 3 4 6 10 11 5 5 8 5 10 6 7 7 11 2 5 7 26 26 20 3 4 12 18 19 4 3 5 4 2 10 10 13 17 19 19 22
7 2 22 16 6 5 5 4 3 6 7 5 2 6 4 9 8 6 3 7 10 11 3 6 14 11 12 13 12 9 9 6 8 9 10 2 5 5 13 12 11 10 15 17 20
5 1 20 5 5 9 4 2 3 12 13 6 3 5 3 4 3 4 8 6 16 15 9 8 4 10 8 11 9 9 6 7 5 2 6 5 0 1 13 13 13 11 14 18 20
3 3 24 6 8 5 3 5 8 10 13 6 3 3 3 6 3 3 6 7 18 16 9 4 3 5 5 9 9 20 9 5 2 9 4 4 2 7 13 13 17 16 17 18 17
3 4 18 8 4 3 4 3 7 9 7 8 7 6 5 3 4 2 6 9 21 16 15 7 3 5 4 6 10 9 21 13 7 4 5 2 1 8 13 14 16 16 16 14 14
4 3 12 18 8 5 2 5 6 10 4 7 4 5 5 5 4 4 7 5 17 15 22 5 4 3 5 4 4 9 21 21 9 3 4 8 14 10 11 12 12 15 15 14 12
7 3 3 4 7 4 3 2 4 7 5 12 5 4 3 2 6 4 4 7 6 18 12 4 3 4 9 8 14 20 22 22 24 17 7 10 14 7 6 8 9 12 11 11 11
5 3 8 6 5 4 7 2 1 5 2 5 2 9 3 2 2 5 6 1 4 8 7 5 1 3 4 10 7 22 20 19 15 12 14 14 10 7 11 11 9 8 7 8 8
7 6 3 9 4 4 2 4 3 1 5 8 4 2 4 5 7 17 14 11 4 2 4 3 2 2 0 4 5 6 17 12 7 15 4 7 3 6 6 6 6 5 5 5 6
Wind_Direction
348 344 341 337 335 333 328 325 321 319 321 319 315 311 307 304 299 299 287 289 290 286 247 236 227 216 215 215 207 210 231 236 228 217 226 211 212 258 254 258 259 226 227 220 194
345 340 337 336 334 330 324 321 321 321 321 320 319 315 311 310 305 297 303 314 318 271 217 217 209 197 198 222 208 185 225 235 205 224 214 229 243 254 259 245 231 217 190 160 173
340 337 336 332 328 327 325 323 321 319 318 317 313 312 311 317 314 252 124 154 358 220 212 215 218 203 204 204 201 224 235 226 218 230 231 232 238 227 174 216 226 224 181 166 172
335 333 331 329 326 323 322 320 319 318 319 318 313 308 306 301 291 268 238 273 319 287 208 207 211 194 203 210 211 247 234 237 231 225 220 195 235 225 222 226 172 152 162 176 178
329 328 328 328 326 323 321 319 319 318 320 314 308 304 298 261 256 287 284 278 278 237 224 214 206 207 217 209 218 232 231 230 237 238 241 247 244 237 205 167 133 131 137 131 135
330 330 328 329 327 324 322 321 319 319 320 310 304 298 275 256 281 307 311 263 293 282 234 227 226 234 254 233 205 213 242 246 249 239 237 229 239 194 90 154 129 138 120 122 123
332 331 331 329 325 322 320 321 318 321 316 302 298 287 261 251 282 293 284 267 285 282 253 253 246 237 295 282 255 249 264 265 242 236 238 233 244 231 307 183 121 118 117 117 107
331 331 328 325 325 324 322 320 320 323 307 287 285 274 260 274 318 341 339 319 294 274 246 254 258 256 255 279 307 271 256 251 249 231 232 193 243 44 119 135 101 105 113 107 95
329 328 327 326 327 326 323 322 326 322 308 303 277 255 261 333 358 345 334 318 313 268 254 258 262 265 255 249 279 245 259 257 289 231 210 201 223 69 79 106 95 83 95 97 95
327 328 327 326 326 326 324 328 337 327 254 320 301 300 264 302 308 298 310 277 310 288 283 249 242 243 232 226 243 252 249 262 259 226 231 224 127 65 54 77 70 67 70 81 82
328 327 325 324 326 326 329 354 4 343 320 277 281 282 285 313 310 4 341 257 276 288 210 240 224 222 224 223 238 254 264 275 274 286 229 266 109 85 61 53 51 44 47 57 66
326 324 323 323 330 327 351 19 4 325 303 303 293 276 309 325 297 0 342 243 196 225 190 254 243 245 250 232 240 249 256 259 274 252 235 129 117 83 70 65 64 52 39 38 48
324 324 324 329 339 3 5 10 340 340 294 301 328 351 11 341 295 320 316 272 230 245 228 230 245 194 232 249 243 246 246 251 250 273 67 120 151 167 105 95 77 61 56 43 38
329 331 328 337 13 353 30 338 332 340 319 280 19 29 357 325 292 325 318 281 286 271 270 248 266 255 261 253 237 250 232 244 258 264 235 196 218 171 151 117 96 75 59 50 42
334 331 337 348 354 21 341 339 323 334 1 26 36 25 353 302 291 1 21 349 294 302 291 270 278 260 251 253 246 253 263 238 238 236 236 202 256 82 146 151 119 94 78 60 54
338 337 352 20 31 352 329 311 320 57 263 335 33 349 344 20 357 360 360 10 323 294 259 268 279 282 246 265 262 273 276 238 234 238 230 220 204 168 183 151 118 95 81 71 60
344 3 7 14 352 350 329 340 29 127 356 344 332 342 321 342 12 0 14 54 37 342 347 311 296 260 5 327 342 279 261 252 214 196 241 201 193 63 92 111 120 112 92 80 72
342 7 19 359 334 330 346 49 78 6 354 357 331 318 331 21 7 342 16 16 41 20 295 338 325 2 347 320 260 266 255 268 269 172 183 9 120 117 95 93 98 98 91 80 74
346 39 8 345 331 333 358 51 6 344 337 322 327 344 337 23 347 3 55 18 40 31 38 311 258 320 300 284 343 317 264 268 249 206 156 119 72 41 121 106 105 97 82 73 74
347 301 10 359 4 8 65 79 89 28 320 342 51 24 318 337 11 18 3 34 354 11 350 283 295 283 304 322 296 255 338 303 193 203 212 145 162 137 155 131 107 85 82 76 79
1 38 359 350 28 55 85 12 51 20 15 10 1 314 307 330 352 302 7 74 11 345 339 284 233 297 335 18 5 354 11 339 253 231 153 142 195 197 139 124 112 98 89 80 74
11 32 1 44 49 34 48 1 1 358 10 9 25 340 312 328 312 316 21 24 10 350 327 267 279 305 37 134 83 73 8 342 337 336 19 97 345 94 110 110 112 108 99 90 82
45 20 25 48 72 12 335 40 42 12 22 13 3 354 9 286 333 4 344 0 10 1 348 2 10 318 350 266 25 27 358 343 267 273 39 356 191 102 100 98 100 102 98 88 75
11 23 31 56 68 98 26 356 340 8 74 350 13 29 359 353 6 312 342 342 353 349 2 45 20 164 115 183 296 15 8 4 5 20 86 62 105 94 95 95 91 90 91 83 68
41 67 30 349 31 68 54 43 338 357 14 17 0 101 298 320 335 8 351 326 338 355 354 74 106 85 132 151 63 36 23 12 29 21 55 107 86 77 81 94 98 99 90 76 59
72 90 84 35 27 45 3 331 26 318 19 320 133 325 351 158 134 309 9 347 219 324 4 350 238 151 233 242 34 38 21 23 24 12 50 64 53 13 76 85 79 83 82 77 52
69 89 103 6 22 65 273 284 288 68 251 247 216 57 350 231 288 291 255 256 241 348 312 25 324 183 239 266 269 15 6 18 35 31 5 40 343 347 28 34 38 20 16 33 6